Regional Weather Roundup
Issued by NWS

Home | Current Version | Previous Version | Graphics & Text | Print | Product List | Glossary On
Versions: 1 2 3 4 5 6 7 8 9 10 11 12 13 14 15 16 17 18 19 20 21 22 23 24 25 26 27 28 29 30 31 32 33 34 35 36 37 38 39 40 41 42 43 44 45 46 47 48 49 50
000
ASUS45 KCYS 191010
RWRWY

WYOMING REGIONAL WEATHER ROUNDUP
NATIONAL WEATHER SERVICE CHEYENNE WY
300 AM MST FRI DEC 19 2014

NOTE:  "FAIR" INDICATES FEW OR NO CLOUDS BELOW 12,000 FEET
WITH NO SIGNIFICANT WEATHER AND/OR OBSTRUCTIONS TO VISIBILITY.

WYZ001-191100-
YELLOWSTONE NATIONAL PARK

CITY           SKY/WX    TMP DP  RH WIND       PRES   REMARKS
LK YELLOWSTONE   N/A     23  19  85 CALM      30.07R
W YELLOWSTONE  NOT AVBL

$$
WYZ002>013-054>058-071-098>099-191100-
NORTHERN WYOMING

CITY           SKY/WX    TMP DP  RH WIND       PRES   REMARKS
JACKSON        CLOUDY    28  27  93 SW8       30.09R WCI  20
CODY           FAIR      36  19  51 NW7G16    29.99S WCI  30
GREYBULL       FAIR       9   5  84 CALM      30.07S
WORLAND        FAIR       1  -3  83 N3        30.06S
SHERIDAN       FAIR      19  10  68 CALM      29.97R
BUFFALO        FAIR      28  11  48 W8        29.98R WCI  20
GILLETTE       FAIR      19  11  70 S6        29.98S WCI  11
HULETT           N/A    N/A N/A N/A MISG        N/A
NEWCASTLE      FAIR      18  18 100 CALM      30.03S

$$
WYZ014>020-022>026-101>103-191100-
CENTRAL WYOMING

CITY           SKY/WX    TMP DP  RH WIND       PRES   REMARKS
BIG PINEY      CLOUDY    12   8  84 CALM      30.13R
PINEDALE       CLOUDY    18  18 100 W3        30.13S
DUBOIS         CLOUDY    27  18  69 NW12      30.02F WCI  16
LANDER         FAIR       0  -4  83 CALM      30.05R
RIVERTON       FOG        6   3  87 CALM      30.07S VSB 1/4
CASPER         FAIR      23  15  71 SW14      30.04S WCI  11
DOUGLAS        FAIR      16  10  77 N5        30.03S WCI   9

$$
WYZ021-027>030-104>119-191100-
SOUTHERN WYOMING

CITY           SKY/WX    TMP DP  RH WIND       PRES   REMARKS
EVANSTON       FAIR      20  18  92 SW7       30.15S WCI  11
KEMMERER       FAIR      21  19  93 W5        30.14R WCI  15
FORT BRIDGER   FAIR      22  19  87 W9        30.17R WCI  12
ROCK SPRINGS   FAIR      22  17  81 SW15      30.13R WCI   9
DIXON          FLURRIES N/A N/A N/A CALM      30.19R
RAWLINS        FAIR      21  17  84 SW16      30.09F WCI   7
SARATOGA       PTSUNNY   16  12  86 CALM      30.11F
LARAMIE        FAIR      14   9  80 SW8       30.04S WCI   3
CHEYENNE       FAIR      22  11  62 SW9       30.03S WCI  12
TORRINGTON     FAIR     N/A N/A N/A CALM      30.04S
PINE BLUFFS    FAIR      16  12  86 W5        30.06S WCI   9

$$


USA.gov is the U.S. government's official web portal to all federal, state and local government web resources and services.